Regional Weather Roundup
Issued by NWS

Home | Current Version | Previous Version | Text Only | Print | Product List | Glossary Off
Versions: 1 2 3 4 5 6 7 8 9 10 11 12 13 14 15 16 17 18 19 20 21 22 23 24 25 26 27 28 29 30 31 32 33 34 35 36 37 38 39 40 41 42 43 44 45 46 47 48 49 50

000
ASUS43 KFSD 110510
RWRSD

WEATHER ROUNDUP FOR SOUTH DAKOTA
NATIONAL WEATHER SERVICE SIOUX FALLS SD
1200 AM CDT FRI JUL 11 2014

NOTE: "FAIR" INDICATES FEW OR NO CLOUDS BELOW 12,000 FEET WITH NO
SIGNIFICANT WEATHER AND/OR OBSTRUCTIONS TO VISIBILITY.


SDZ001>005-009-010-012>017-110600-
NORTHWEST AND NORTH CENTRAL SOUTH DAKOTA

CITY           SKY/WX    TMP DP  RH WIND       PRES   REMARKS
BUFFALO          N/A     72  65  78 S7        29.83R
FAITH            N/A     69  67  93 S9        29.87S
MOBRIDGE       CLEAR     67  65  93 CALM      29.81S
$$

SDZ012>016-024>037-041>051-057-063-072>074-110600-
SOUTHWEST AND SOUTH CENTRAL SOUTH DAKOTA

CITY           SKY/WX    TMP DP  RH WIND       PRES   REMARKS
RAPID CTY ARPT PTCLDY    72  61  68 W6        29.91S
PIERRE         PTCLDY    77  69  76 S3        29.80S
CUSTER         CLOUDY    63  58  83 W5        30.09S
ELLSWORTH AFB  MOCLDY    72  61  68 W7        29.92R
PHILIP         PTCLDY    73  66  78 CALM      29.85R
PINE RIDGE     CLOUDY    67  62  84 S8        29.93F
WINNER         LGT RAIN  75  68  78 SW20G26   29.87R
$$

SDZ004>011-016>023-039-040-110600-
NORTHEAST SOUTH DAKOTA

CITY           SKY/WX    TMP DP  RH WIND       PRES   REMARKS
ABERDEEN       LGT RAIN  71  68  90 S5        29.83R
WATERTOWN      MOCLDY    73  66  78 S12       29.89S
SISSETON         N/A     71  68  90 S12       29.83F
$$

SDZ017-020-022-023-036>040-048>070-110600-
SOUTHEAST SOUTH DAKOTA

CITY           SKY/WX    TMP DP  RH WIND       PRES   REMARKS
SIOUX FALLS    MOCLDY    76  66  71 S20G29    29.94R
HURON          MOCLDY    78  67  68 S12       29.84S
CHAMBERLAIN    HVY RAIN  72  70  92 S9G16     29.90R
MITCHELL       MOCLDY    78  68  71 S14       29.87R
YANKTON        MOCLDY    73  66  78 S12       29.93R
$$

ABBREVIATIONS USED IN REMARKS
   TC - TEMPERATURE IN CELSIUS
  WCI - WIND CHILL INDEX
   HX - HEAT INDEX
  VSB - VISIBILITY




USA.gov is the U.S. government's official web portal to all federal, state and local government web resources and services.